When you browse on this site, cookies collect data to enhance your experience and personalize the content and advertising you see.
Visit our Privacy Policy to learn more. By continuing to use the site, you agree to this use of cookies and data.
  • en France
  • Liste des pays
  • À 7 jours
  • Température de l'eau
  • Carte satellitaire
  • Carte météo
  • Widgets météo
  • user-avatar
    Se connecter

    Météo par heure à Montana

    Ce jour, 23 Mai, Jeudi

    Heure Température Précipitation Vent Pression Humidité
    00:00 +15°C° 0 mm 1 m/s 732 mmHg 81%
    01:00 +14°C° 0 mm 2 m/s 732 mmHg 81%
    02:00 +14°C° 0 mm 2 m/s 732 mmHg 82%
    03:00 +14°C° 0 mm 2 m/s 732 mmHg 83%
    04:00 +14°C° 0 mm 2 m/s 732 mmHg 84%
    05:00 +13°C° 0 mm 2 m/s 732 mmHg 85%
    06:00 +15°C° 0 mm 2 m/s 732 mmHg 81%
    07:00 +17°C° 0 mm 2 m/s 732 mmHg 77%
    08:00 +19°C° 0 mm 1 m/s 733 mmHg 73%
    09:00 +19°C° 0.5 mm 2 m/s 733 mmHg 72%
    10:00 +20°C° 0.5 mm 3 m/s 732 mmHg 71%
    11:00 +20°C° 0.5 mm 3 m/s 732 mmHg 70%
    12:00 +20°C° 0.7 mm 3 m/s 732 mmHg 70%
    13:00 +21°C° 0.7 mm 3 m/s 732 mmHg 69%
    14:00 +21°C° 0.7 mm 4 m/s 732 mmHg 69%
    15:00 +21°C° 0.3 mm 3 m/s 731 mmHg 68%
    16:00 +21°C° 0.3 mm 3 m/s 731 mmHg 67%
    17:00 +21°C° 0.3 mm 3 m/s 731 mmHg 66%
    18:00 +19°C° 0.1 mm 2 m/s 731 mmHg 72%
    19:00 +17°C° 0.1 mm 2 m/s 731 mmHg 79%
    20:00 +16°C° 0.1 mm 1 m/s 730 mmHg 86%
    21:00 +15°C° 0.2 mm 2 m/s 731 mmHg 87%
    22:00 +14°C° 0.2 mm 2 m/s 731 mmHg 89%
    23:00 +14°C° 0.2 mm 2 m/s 731 mmHg 90%

    Demain, 24 Mai, Vendredi

    Heure Température Précipitation Vent Pression Humidité
    00:00 +14°C° 0 mm 2 m/s 731 mmHg 90%
    01:00 +13°C° 0 mm 2 m/s 731 mmHg 90%
    02:00 +13°C° 0 mm 2 m/s 731 mmHg 90%
    03:00 +13°C° 0 mm 2 m/s 731 mmHg 90%
    04:00 +13°C° 0 mm 2 m/s 731 mmHg 90%
    05:00 +13°C° 0 mm 2 m/s 731 mmHg 90%
    06:00 +14°C° 0.1 mm 2 m/s 731 mmHg 87%
    07:00 +14°C° 0.1 mm 3 m/s 731 mmHg 84%
    08:00 +16°C° 0.1 mm 3 m/s 731 mmHg 80%
    09:00 +16°C° 0.1 mm 3 m/s 731 mmHg 79%
    10:00 +17°C° 0.1 mm 3 m/s 731 mmHg 77%
    11:00 +17°C° 0.1 mm 3 m/s 731 mmHg 76%
    12:00 +18°C° 0 mm 3 m/s 731 mmHg 71%
    13:00 +19°C° 0 mm 3 m/s 731 mmHg 66%
    14:00 +20°C° 0 mm 4 m/s 730 mmHg 61%
    15:00 +20°C° 0.1 mm 3 m/s 730 mmHg 64%
    16:00 +20°C° 0.1 mm 3 m/s 730 mmHg 67%
    17:00 +19°C° 0.1 mm 3 m/s 729 mmHg 70%
    18:00 +18°C° 0.1 mm 3 m/s 729 mmHg 75%
    19:00 +16°C° 0.1 mm 2 m/s 730 mmHg 81%
    20:00 +15°C° 0.1 mm 2 m/s 730 mmHg 87%
    21:00 +14°C° 0 mm 2 m/s 730 mmHg 87%
    22:00 +14°C° 0 mm 2 m/s 730 mmHg 88%
    23:00 +13°C° 0 mm 2 m/s 731 mmHg 88%

    Après-demain, 25 Mai, Samedi

    Heure Température Précipitation Vent Pression Humidité
    00:00 +12°C° 0 mm 3 m/s 731 mmHg 89%
    01:00 +12°C° 0 mm 3 m/s 731 mmHg 89%
    02:00 +12°C° 0 mm 3 m/s 731 mmHg 89%
    03:00 +12°C° 0 mm 3 m/s 731 mmHg 90%
    04:00 +12°C° 0 mm 3 m/s 731 mmHg 90%
    05:00 +12°C° 0 mm 3 m/s 731 mmHg 90%
    06:00 +13°C° 0 mm 3 m/s 731 mmHg 85%
    07:00 +16°C° 0 mm 3 m/s 731 mmHg 80%
    08:00 +18°C° 0 mm 3 m/s 732 mmHg 75%
    09:00 +18°C° 0 mm 3 m/s 732 mmHg 72%
    10:00 +19°C° 0 mm 3 m/s 732 mmHg 69%
    11:00 +20°C° 0 mm 3 m/s 732 mmHg 66%
    12:00 +20°C° 0 mm 3 m/s 732 mmHg 63%
    13:00 +21°C° 0 mm 3 m/s 732 mmHg 61%
    14:00 +22°C° 0 mm 3 m/s 731 mmHg 59%
    15:00 +22°C° 0 mm 3 m/s 731 mmHg 59%
    16:00 +22°C° 0 mm 3 m/s 731 mmHg 60%
    17:00 +22°C° 0 mm 3 m/s 731 mmHg 61%
    18:00 +21°C° 0 mm 2 m/s 731 mmHg 68%
    19:00 +19°C° 0 mm 2 m/s 731 mmHg 75%
    20:00 +17°C° 0 mm 2 m/s 731 mmHg 82%
    21:00 +17°C° 0 mm 2 m/s 732 mmHg 83%
    22:00 +16°C° 0 mm 2 m/s 732 mmHg 84%
    23:00 +15°C° 0 mm 2 m/s 732 mmHg 84%

    26 Mai, Dimanche

    Heure Température Précipitation Vent Pression Humidité
    00:00 +15°C° 0 mm 2 m/s 732 mmHg 84%
    01:00 +15°C° 0 mm 2 m/s 732 mmHg 83%
    02:00 +15°C° 0 mm 2 m/s 732 mmHg 82%
    03:00 +14°C° 0 mm 2 m/s 732 mmHg 81%
    04:00 +14°C° 0 mm 2 m/s 732 mmHg 80%
    05:00 +14°C° 0 mm 2 m/s 732 mmHg 79%
    06:00 +16°C° 0 mm 2 m/s 732 mmHg 74%
    07:00 +19°C° 0 mm 1 m/s 733 mmHg 69%
    08:00 +21°C° 0 mm 1 m/s 733 mmHg 65%
    09:00 +23°C° 0 mm 1 m/s 733 mmHg 60%
    10:00 +24°C° 0 mm 1 m/s 733 mmHg 55%
    11:00 +26°C° 0 mm 1 m/s 733 mmHg 49%
    12:00 +27°C° 0 mm 1 m/s 733 mmHg 48%
    13:00 +27°C° 0 mm 1 m/s 733 mmHg 47%
    14:00 +28°C° 0 mm 1 m/s 732 mmHg 46%
    15:00 +27°C° 0 mm 1 m/s 732 mmHg 52%
    16:00 +26°C° 0 mm 1 m/s 732 mmHg 58%
    17:00 +25°C° 0 mm 1 m/s 732 mmHg 65%
    18:00 +24°C° 0 mm 1 m/s 732 mmHg 68%
    19:00 +22°C° 0 mm 1 m/s 732 mmHg 71%
    20:00 +21°C° 0 mm 1 m/s 732 mmHg 74%
    21:00 +20°C° 0 mm 1 m/s 732 mmHg 73%
    22:00 +19°C° 0 mm 2 m/s 732 mmHg 73%
    23:00 +18°C° 0 mm 2 m/s 732 mmHg 72%

    27 Mai, Lundi

    Heure Température Précipitation Vent Pression Humidité
    00:00 +18°C° 0 mm 2 m/s 732 mmHg 73%
    01:00 +18°C° 0 mm 2 m/s 732 mmHg 73%
    02:00 +18°C° 0 mm 2 m/s 732 mmHg 74%
    03:00 +18°C° 0 mm 2 m/s 732 mmHg 75%
    04:00 +17°C° 0 mm 2 m/s 732 mmHg 76%
    05:00 +17°C° 0 mm 2 m/s 732 mmHg 78%
    06:00 +20°C° 0 mm 1 m/s 732 mmHg 74%
    07:00 +21°C° 0 mm 1 m/s 732 mmHg 70%
    08:00 +23°C° 0 mm 1 m/s 732 mmHg 66%
    09:00 +24°C° 0 mm 1 m/s 732 mmHg 63%
    10:00 +25°C° 0 mm 1 m/s 731 mmHg 60%
    11:00 +26°C° 0 mm 2 m/s 731 mmHg 57%
    12:00 +26°C° 0.2 mm 2 m/s 731 mmHg 60%
    13:00 +27°C° 0.2 mm 3 m/s 731 mmHg 63%
    14:00 +27°C° 0.2 mm 3 m/s 730 mmHg 66%
    15:00 +26°C° 0.5 mm 3 m/s 730 mmHg 68%
    16:00 +26°C° 0.5 mm 2 m/s 730 mmHg 70%
    17:00 +25°C° 0.5 mm 2 m/s 729 mmHg 72%
    18:00 +24°C° 0.1 mm 2 m/s 729 mmHg 75%
    19:00 +23°C° 0.1 mm 2 m/s 729 mmHg 78%
    20:00 +21°C° 0.1 mm 2 m/s 729 mmHg 81%
    21:00 +20°C° 0.2 mm 2 m/s 729 mmHg 81%
    22:00 +19°C° 0.2 mm 2 m/s 729 mmHg 81%
    23:00 +18°C° 0.2 mm 2 m/s 729 mmHg 81%

    28 Mai, Mardi

    Heure Température Précipitation Vent Pression Humidité
    00:00 +18°C° 0.1 mm 2 m/s 728 mmHg 80%
    01:00 +17°C° 0.1 mm 3 m/s 728 mmHg 79%
    02:00 +16°C° 0.1 mm 3 m/s 728 mmHg 78%
    03:00 +16°C° 0 mm 3 m/s 728 mmHg 77%
    04:00 +15°C° 0 mm 2 m/s 728 mmHg 77%
    05:00 +15°C° 0 mm 2 m/s 728 mmHg 77%
    06:00 +17°C° 0 mm 2 m/s 728 mmHg 72%
    07:00 +19°C° 0 mm 2 m/s 728 mmHg 67%
    08:00 +21°C° 0 mm 2 m/s 729 mmHg 63%
    09:00 +23°C° 0 mm 2 m/s 729 mmHg 57%
    10:00 +25°C° 0 mm 2 m/s 729 mmHg 51%
    11:00 +27°C° 0 mm 2 m/s 729 mmHg 45%
    12:00 +27°C° 0 mm 2 m/s 728 mmHg 42%
    13:00 +28°C° 0 mm 3 m/s 728 mmHg 40%
    14:00 +29°C° 0 mm 3 m/s 728 mmHg 38%
    15:00 +28°C° 0 mm 3 m/s 728 mmHg 42%
    16:00 +28°C° 0 mm 3 m/s 728 mmHg 47%
    17:00 +28°C° 0 mm 3 m/s 728 mmHg 51%
    18:00 +25°C° 0.4 mm 2 m/s 728 mmHg 58%
    19:00 +23°C° 0.4 mm 1 m/s 728 mmHg 65%
    20:00 +21°C° 0.4 mm 1 m/s 729 mmHg 72%
    21:00 +20°C° 0 mm 1 m/s 729 mmHg 73%
    22:00 +19°C° 0 mm 2 m/s 729 mmHg 74%
    23:00 +18°C° 0 mm 2 m/s 730 mmHg 75%
    Voir plus